Content
SEND FEEDBACK

Daily
Averages
Monthly
Summary
United States of America

MERIZO, GUAM


Home > North America > United States > Guam
Elevation: 10 feet     Latitude: 13 14N     Longitude: 144 39E

WEATHER
 
SELECT A DAY
Number of Records: 341,964;   Date Range: 1/1/95 - 7/26/14
 
SHARE

PRINT THIS DATA

[ ← Previous Day ]
WEATHER ALMANAC - APRIL 23, 2013
[ Next Day → ]
[ °C ]   °F
Weather ElementAverageHighLow
Temperature80.4 °F85.6 °F (1:55 pm)78.3 °F (4:55 am)
Dewpoint73.3 °F77 °F (10:13 am)69.4 °F (9:55 pm)
Humidity79 %89 % (10:13 am)65 % (1:55 pm)
Barometer29.91 in29.95 in (7:55 am)29.84 in (3:55 pm)
Wind Speed13.9 mph19.6 mph (10:24 am)
Wind Gust26.5 mph (2:55 pm)
Weather ElementAverage
Visibility9.8 mi
Wind DirectionENE (74.7 °)

Weather ElementTotal
Precipitation---
Cooling Degree Days17 (Base 65)
Growing Degree Days32 (Base 50)
Averaged from 58 records on April 23, 2013
WEATHER CONDITIONS BREAKOUT
WIND DIRECTION BREAKOUT
WEATHER BY HOUR - APRIL 23, 2013
[ °C ]   °F
Local TimeTemperatureDewpointHumidityBarometerVisibilityWind DirectionWind SpeedGust SpeedPrecipitationEventsConditions
1:55 AM79.0 °F72.3 °F80 %29.91 in10.0 miEast (90°)10.4 mphPartly Cloudy
2:26 AM78.8 °F73.4 °F83 %29.91 in10.0 miEast (90°)10.4 mphMostly Cloudy
2:28 AM78.8 °F73.4 °F83 %29.91 in10.0 miEast (90°)11.5 mphScattered Clouds
2:55 AM78.6 °F73.6 °F84 %29.90 in10.0 miEast (90°)10.4 mphScattered Clouds
2:58 AM78.8 °F73.4 °F83 %29.90 in10.0 miEast (90°)11.5 mphMostly Cloudy
3:26 AM78.8 °F73.4 °F83 %29.89 in10.0 miEast (90°)11.5 mphScattered Clouds
3:55 AM78.4 °F73.0 °F83 %29.89 in10.0 miEast (80°)10.4 mphPartly Cloudy
4:55 AM78.3 °F73.4 °F85 %29.90 in10.0 miEast (80°)8.1 mphScattered Clouds
5:40 AM78.8 °F73.4 °F83 %29.91 in10.0 miEast (80°)11.5 mphMostly Cloudy
5:45 AM78.8 °F73.4 °F83 %29.91 in10.0 miENE (70°)11.5 mphScattered Clouds
5:55 AM78.3 °F73.4 °F85 %29.91 in10.0 miEast (80°)11.5 mphScattered Clouds
6:10 AM78.8 °F73.4 °F83 %29.91 in10.0 miEast (80°)12.7 mphMostly Cloudy
6:12 AM78.8 °F73.4 °F83 %29.91 in10.0 miEast (80°)12.7 mphScattered Clouds
6:14 AM78.8 °F73.4 °F83 %29.92 in10.0 miENE (70°)10.4 mphMostly Cloudy
6:26 AM78.8 °F73.4 °F83 %29.92 in10.0 miENE (70°)12.7 mphScattered Clouds
6:36 AM78.8 °F73.4 °F83 %29.92 in10.0 miENE (70°)10.4 mphMostly Cloudy
6:48 AM78.8 °F73.4 °F83 %29.92 in10.0 miENE (70°)12.7 mphScattered Clouds
6:49 AM78.8 °F73.4 °F83 %29.92 in10.0 miENE (70°)11.5 mphMostly Cloudy
6:52 AM78.8 °F73.4 °F83 %29.92 in10.0 miEast (80°)10.4 mphScattered Clouds
6:55 AM79.5 °F73.6 °F82 %29.93 in10.0 miENE (70°)13.8 mphMostly Cloudy
6:57 AM78.8 °F73.4 °F83 %29.93 in10.0 miENE (70°)15.0 mphScattered Clouds
7:06 AM80.6 °F73.4 °F79 %29.93 in10.0 miEast (80°)13.8 mphMostly Cloudy
7:18 AM80.6 °F73.4 °F79 %29.94 in10.0 miEast (80°)12.7 mphScattered Clouds
7:22 AM80.6 °F73.4 °F79 %29.94 in10.0 miENE (70°)15.0 mphMostly Cloudy
7:30 AM80.6 °F73.4 °F79 %29.94 in10.0 miEast (80°)12.7 mphScattered Clouds
7:55 AM81.0 °F73.8 °F79 %29.95 in10.0 miENE (70°)15.0 mphScattered Clouds
8:55 AM82.9 °F75.0 °F77 %29.95 in10.0 miENE (70°)13.8 mphClear
9:55 AM83.3 °F75.4 °F77 %29.94 in10.0 miENE (70°)15.0 mphScattered Clouds
9:59 AM82.4 °F75.2 °F79 %29.94 in10.0 miENE (70°)15.0 mphMostly Cloudy
10:02 AM82.4 °F75.2 °F79 %29.94 in5.0 miEast (90°)16.1 mphRainLight Rain
10:13 AM80.6 °F77.0 °F89 %29.94 in6.0 miENE (70°)18.4 mphRainLight Rain
10:15 AM80.6 °F77.0 °F89 %29.94 in9.0 miENE (70°)18.4 mphMostly Cloudy
10:20 AM80.6 °F75.2 °F84 %29.94 in10.0 miEast (80°)16.1 mphMostly Cloudy
10:21 AM80.6 °F75.2 °F84 %29.94 in10.0 miENE (70°)15.0 mphMostly Cloudy
10:24 AM80.6 °F75.2 °F84 %29.94 in10.0 miENE (70°)19.6 mph23.0 mphOvercast
11:55 AM84.9 °F72.7 °F67 %29.92 in10.0 miEast (80°)17.3 mphPartly Cloudy
12:55 PM85.5 °F73.2 °F67 %29.89 in10.0 miEast (90°)19.6 mphMostly Cloudy
1:55 PM85.6 °F72.5 °F65 %29.87 in10.0 miEast (90°)16.1 mph23.0 mphPartly Cloudy
2:55 PM84.9 °F72.5 °F66 %29.85 in10.0 miENE (70°)17.3 mph26.5 mphPartly Cloudy
3:55 PM84.6 °F72.5 °F67 %29.84 in10.0 miEast (80°)15.0 mphClear
4:55 PM82.9 °F72.3 °F70 %29.84 in10.0 miENE (70°)16.1 mphClear
5:25 PM82.4 °F71.6 °F70 %29.84 in10.0 miEast (80°)17.3 mphMostly Cloudy
5:31 PM82.4 °F71.6 °F70 %29.85 in10.0 miEast (80°)15.0 mphMostly Cloudy
5:34 PM82.4 °F73.4 °F74 %29.85 in10.0 miEast (80°)13.8 mphMostly Cloudy
5:36 PM82.4 °F73.4 °F74 %29.85 in10.0 miENE (70°)15.0 mphScattered Clouds
5:55 PM81.1 °F72.7 °F75 %29.86 in10.0 miENE (70°)12.7 mphScattered Clouds
6:55 PM79.5 °F73.0 °F80 %29.88 in10.0 miENE (70°)12.7 mphPartly Cloudy
7:27 PM80.6 °F73.4 °F79 %29.88 in10.0 miENE (60°)13.8 mphMostly Cloudy
7:49 PM80.6 °F73.4 °F79 %29.90 in10.0 miENE (60°)16.1 mphMostly Cloudy
7:51 PM80.6 °F73.4 °F79 %29.90 in10.0 miENE (60°)17.3 mphMostly Cloudy
7:53 PM80.6 °F73.4 °F79 %29.90 in10.0 miENE (60°)16.1 mphMostly Cloudy
7:55 PM79.7 °F72.9 °F80 %29.90 in10.0 miENE (70°)15.0 mphScattered Clouds
8:55 PM79.0 °F71.4 °F78 %29.93 in10.0 miENE (60°)16.1 mphPartly Cloudy
9:55 PM78.6 °F69.4 °F73 %29.95 in10.0 miENE (70°)13.8 mphClear
10:55 PM78.8 °F72.0 °F79 %29.95 in10.0 miENE (60°)10.4 mphPartly Cloudy
11:03 PM78.8 °F71.6 °F78 %29.95 in10.0 miENE (70°)13.8 mphMostly Cloudy
11:27 PM78.8 °F71.6 °F78 %29.95 in10.0 miENE (60°)15.0 mphScattered Clouds
11:55 PM78.4 °F70.3 °F76 %29.94 in10.0 miENE (70°)16.1 mphClear
Hourly data recorded from PGUA, located miles away from Merizo, Guam







STORIES FROM OUR PARTNERS